Ainsworth, NE

6:37 PM CDT on April 19, 2018 (GMT -0500)
Ainsworth Municipal

Weather History for KANW - February, 2012

Change the Weather History Date:

Thursday, February 23, 2012

  Actual Average Record
Temperature  
Mean Temperature 34 °F -  
Max Temperature 39 °F 37 °F 69 °F (2002)
Min Temperature 29 °F 18 °F 0 °F (2015)
Degree Days  
Heating Degree Days 30    
Moisture  
Dew Point 28 °F    
Average Humidity 78    
Maximum Humidity 99    
Minimum Humidity 55    
Precipitation  
Precipitation 0.00 in - - ()
Sea Level Pressure  
Sea Level Pressure 29.55 in    
Wind  
Wind Speed 19 mph (NW)    
Max Wind Speed 38 mph    
Max Gust Speed 54 mph    
Visibility 10 miles    
Events Snow    
Averages and records for this station are not official NWS values.
T = Trace of Precipitation, MM = Missing Value Source: NWS Daily Summary

Daily Weather History Graph

Daily Weather History Graph

Search for Another Location

Airport or City:

Astronomy

Feb. 23, 2012 Rise Set
Actual Time 7:25 AM CST 6:21 PM CST
Civil Twilight 6:57 AM CST 6:50 PM CST
Nautical Twilight 6:24 AM CST 7:22 PM CST
Astronomical Twilight 5:51 AM CST 7:55 PM CST
Moon 7:49 AM CST (2/23) 8:33 PM CST (2/23)
Length of Visible Light 11h 52m
Length of Day
10h 55m
Waxing Crescent, 3% of the Moon is Illuminated
Feb 23
Waxing Crescent
Feb 29
First Quarter
Mar 8
Full
Mar 14
Last Quarter
Mar 22
New

Hourly Weather History & Observations

Time (CST) Temp. Windchill Dew Point Humidity Pressure Visibility Wind Dir Wind Speed Gust Speed Precip Events Conditions
12:15 AM 36.5 °F 30.3 °F 35.8 °F 97% 29.28 in 10.0 mi WSW 8.1 mph - N/A   Mostly Cloudy
12:35 AM 36.0 °F 29.6 °F 35.6 °F 99% 29.29 in 10.0 mi WSW 8.1 mph - N/A   Mostly Cloudy
12:55 AM 36.9 °F 30.1 °F 36.1 °F 97% 29.29 in 10.0 mi WSW 9.2 mph - N/A   Overcast
1:15 AM 36.9 °F 30.1 °F 35.8 °F 96% 29.29 in 10.0 mi WSW 9.2 mph - N/A   Mostly Cloudy
1:35 AM 36.7 °F 30.5 °F 35.6 °F 96% 29.29 in 10.0 mi WSW 8.1 mph - N/A   Clear
1:55 AM 36.5 °F 30.3 °F 35.6 °F 97% 29.29 in 10.0 mi WSW 8.1 mph - N/A   Mostly Cloudy
2:15 AM 36.7 °F 30.5 °F 35.6 °F 96% 29.30 in 10.0 mi West 8.1 mph - N/A   Overcast
2:35 AM 37.8 °F 28.6 °F 36.0 °F 93% 29.31 in 10.0 mi West 16.1 mph 20.7 mph N/A   Overcast
2:55 AM 38.8 °F 30.0 °F 35.1 °F 86% 29.31 in 10.0 mi WNW 16.1 mph 21.9 mph N/A   Mostly Cloudy
3:15 AM 39.2 °F 31.2 °F 34.2 °F 82% 29.31 in 10.0 mi WNW 13.8 mph - N/A   Mostly Cloudy
3:35 AM 38.5 °F 30.7 °F 34.0 °F 84% 29.31 in 10.0 mi WNW 12.7 mph - N/A   Mostly Cloudy
3:55 AM 37.6 °F 29.6 °F 34.0 °F 87% 29.31 in 10.0 mi West 12.7 mph - N/A   Clear
4:15 AM 37.4 °F 29.8 °F 33.8 °F 87% 29.33 in 10.0 mi West 11.5 mph - N/A   Clear
4:35 AM 37.2 °F 27.0 °F 33.6 °F 87% 29.33 in 10.0 mi WNW 19.6 mph 24.2 mph N/A   Clear
4:55 AM 37.8 °F 28.0 °F 30.9 °F 76% 29.33 in 10.0 mi NW 18.4 mph 29.9 mph N/A   Clear
5:15 AM 37.8 °F 26.8 °F 30.9 °F 76% 29.35 in 10.0 mi WNW 23.0 mph 31.1 mph N/A   Mostly Cloudy
5:35 AM 37.6 °F 25.6 °F 31.6 °F 79% 29.36 in 10.0 mi WNW 27.6 mph 34.5 mph N/A   Overcast
5:55 AM 36.5 °F 25.4 °F 32.2 °F 84% 29.36 in 10.0 mi WNW 21.9 mph 32.2 mph N/A   Overcast
6:15 AM 36.0 °F 23.9 °F 32.5 °F 87% 29.36 in 10.0 mi WNW 25.3 mph 38.0 mph N/A   Overcast
6:35 AM 36.5 °F 24.0 °F 31.6 °F 83% 29.36 in 10.0 mi NW 28.8 mph 38.0 mph N/A   Overcast
6:55 AM 36.1 °F 22.6 °F 29.8 °F 78% 29.37 in 10.0 mi NW 33.4 mph 54.1 mph N/A   Overcast
7:15 AM 35.6 °F 21.1 °F 28.8 °F 76% 29.38 in 10.0 mi NW 38.0 mph 46.0 mph N/A   Overcast
7:35 AM 34.7 °F 20.1 °F 28.0 °F 77% 29.39 in 10.0 mi NW 36.8 mph 54.1 mph N/A   Mostly Cloudy
7:55 AM 34.2 °F 19.3 °F 27.9 °F 78% 29.40 in 10.0 mi NW 36.8 mph 51.8 mph N/A   Scattered Clouds
8:15 AM 33.8 °F 19.0 °F 28.2 °F 80% 29.43 in 10.0 mi NW 35.7 mph 52.9 mph N/A   Mostly Cloudy
8:35 AM 32.9 °F 17.8 °F 28.0 °F 82% 29.47 in 10.0 mi NW 35.7 mph 47.2 mph N/A   Overcast
8:55 AM 32.2 °F 17.0 °F 28.0 °F 85% 29.50 in 10.0 mi NW 34.5 mph 44.9 mph N/A   Overcast
9:15 AM 32.0 °F 16.7 °F 28.0 °F 85% 29.53 in 10.0 mi NNW 34.5 mph 41.4 mph N/A   Overcast
9:35 AM 32.2 °F 17.9 °F 27.7 °F 83% 29.55 in 10.0 mi NNW 29.9 mph 38.0 mph N/A   Overcast
9:55 AM 32.4 °F 18.1 °F 27.9 °F 83% 29.57 in 10.0 mi NNW 29.9 mph 40.3 mph N/A   Overcast
10:15 AM 32.2 °F 19.1 °F 28.2 °F 85% 29.58 in 10.0 mi NNW 24.2 mph 35.7 mph N/A   Overcast
10:35 AM 32.2 °F 18.9 °F 28.2 °F 85% 29.59 in 10.0 mi NNW 25.3 mph 36.8 mph N/A   Overcast
10:55 AM 32.2 °F 17.6 °F 27.0 °F 81% 29.61 in 5.0 mi NW 31.1 mph 39.1 mph N/A Snow Light Snow
11:15 AM 32.7 °F 19.6 °F 26.1 °F 76% 29.61 in 10.0 mi NW 25.3 mph 36.8 mph N/A   Overcast
11:35 AM 32.9 °F 19.6 °F 26.1 °F 76% 29.61 in 10.0 mi NW 26.5 mph 42.6 mph N/A   Overcast
11:55 AM 32.2 °F 18.9 °F 27.3 °F 82% 29.62 in 3.0 mi NW 25.3 mph 41.4 mph N/A Snow Light Snow
12:15 PM 32.9 °F 18.9 °F 26.2 °F 76% 29.64 in 10.0 mi NW 29.9 mph 42.6 mph N/A   Overcast
12:35 PM 32.9 °F 18.9 °F 26.4 °F 77% 29.65 in 7.0 mi NW 29.9 mph 41.4 mph N/A Snow Light Snow
12:55 PM 32.0 °F 17.9 °F 27.9 °F 85% 29.66 in 2.5 mi NW 28.8 mph 39.1 mph N/A Snow Light Snow
1:15 PM 32.0 °F 18.9 °F 28.6 °F 87% 29.67 in 1.8 mi NNW 24.2 mph 33.4 mph N/A Snow Light Snow
1:35 PM 33.1 °F 20.3 °F 26.4 °F 77% 29.67 in 10.0 mi NW 24.2 mph 36.8 mph N/A Snow Light Snow
1:55 PM 33.8 °F 21.0 °F 25.3 °F 71% 29.67 in 10.0 mi NNW 25.3 mph 41.4 mph N/A   Overcast
2:15 PM 34.7 °F 22.0 °F 24.6 °F 67% 29.68 in 10.0 mi NW 26.5 mph 41.4 mph N/A   Overcast
2:35 PM 34.0 °F 19.7 °F 25.0 °F 70% 29.69 in 10.0 mi NNW 33.4 mph 38.0 mph N/A   Overcast
2:55 PM 34.2 °F 21.0 °F 23.5 °F 65% 29.70 in 10.0 mi NNW 27.6 mph 39.1 mph N/A   Overcast
3:15 PM 35.1 °F 20.8 °F 22.3 °F 60% 29.71 in 10.0 mi NNW 35.7 mph 41.4 mph N/A   Overcast
3:35 PM 35.4 °F 23.5 °F 22.6 °F 60% 29.72 in 10.0 mi NNW 24.2 mph 43.7 mph N/A   Mostly Cloudy
3:55 PM 34.3 °F 21.0 °F 22.1 °F 61% 29.72 in 10.0 mi NW 28.8 mph 42.6 mph N/A   Scattered Clouds
4:15 PM 36.3 °F 22.1 °F 21.6 °F 55% 29.74 in 10.0 mi NNW 38.0 mph 48.3 mph N/A   Mostly Cloudy
4:35 PM 34.7 °F 22.2 °F 21.4 °F 58% 29.74 in 10.0 mi NNW 25.3 mph 38.0 mph N/A   Mostly Cloudy
4:55 PM 34.0 °F 19.9 °F 22.8 °F 64% 29.76 in 10.0 mi NNW 32.2 mph 39.1 mph N/A   Scattered Clouds
5:15 PM 34.3 °F 22.3 °F 22.8 °F 63% 29.76 in 10.0 mi NNW 23.0 mph 32.2 mph N/A   Scattered Clouds
5:35 PM 34.0 °F 21.0 °F 20.1 °F 57% 29.78 in 10.0 mi NNW 26.5 mph 42.6 mph N/A   Scattered Clouds
5:55 PM 33.8 °F 21.3 °F 21.9 °F 62% 29.80 in 10.0 mi NNW 24.2 mph 33.4 mph N/A   Scattered Clouds
6:15 PM 32.0 °F 18.4 °F 22.6 °F 68% 29.81 in 10.0 mi NNW 26.5 mph 33.4 mph N/A   Scattered Clouds
6:35 PM 32.0 °F 20.5 °F 22.5 °F 68% 29.82 in 10.0 mi NNW 18.4 mph 31.1 mph N/A   Scattered Clouds
6:55 PM 31.1 °F 20.9 °F 23.0 °F 72% 29.83 in 10.0 mi NNW 13.8 mph - N/A   Clear
7:15 PM 30.2 °F 21.9 °F 23.0 °F 75% 29.84 in 10.0 mi NW 9.2 mph - N/A   Clear
7:35 PM 30.2 °F 20.2 °F 22.5 °F 73% 29.85 in 10.0 mi NW 12.7 mph - N/A   Clear
7:55 PM 30.6 °F 20.2 °F 21.6 °F 69% 29.87 in 10.0 mi NNW 13.8 mph 19.6 mph N/A   Scattered Clouds
8:15 PM 30.2 °F 20.8 °F 21.7 °F 71% 29.87 in 10.0 mi NNW 11.5 mph - N/A   Scattered Clouds
8:35 PM 29.7 °F 21.3 °F 21.9 °F 73% 29.87 in 10.0 mi NW 9.2 mph - N/A   Clear
8:55 PM 28.0 °F 22.8 °F 21.6 °F 77% 29.88 in 10.0 mi WNW 4.6 mph - N/A   Scattered Clouds
9:15 PM 28.2 °F 19.5 °F 22.6 °F 80% 29.89 in 10.0 mi WNW 9.2 mph - N/A   Mostly Cloudy
9:35 PM 29.1 °F 21.3 °F 22.6 °F 77% 29.89 in 10.0 mi WNW 8.1 mph - N/A   Mostly Cloudy
9:55 PM 28.4 °F 19.7 °F 22.6 °F 79% 29.90 in 10.0 mi WNW 9.2 mph - N/A   Clear
10:15 PM 28.9 °F 18.2 °F 24.6 °F 84% 29.89 in 10.0 mi WNW 13.8 mph - N/A   Mostly Cloudy
10:35 PM 28.4 °F 18.0 °F 24.8 °F 86% 29.90 in 10.0 mi WNW 12.7 mph 17.3 mph N/A   Scattered Clouds
10:55 PM 28.2 °F 17.7 °F 25.0 °F 88% 29.90 in 10.0 mi WNW 12.7 mph 19.6 mph N/A   Clear
11:15 PM 27.5 °F 18.0 °F 24.6 °F 89% 29.90 in 10.0 mi WNW 10.4 mph 16.1 mph N/A   Clear
11:35 PM 27.5 °F 16.3 °F 24.3 °F 88% 29.91 in 10.0 mi WNW 13.8 mph 19.6 mph N/A   Clear
11:55 PM 27.0 °F 16.1 °F 23.5 °F 87% 29.91 in 10.0 mi WNW 12.7 mph - N/A   Clear